Regional Weather Roundup
Issued by NWS Newport/Morehead, NC

Home | Current Version | Previous Version | Text Only | Print | Product List | Glossary On
Versions: 1 2 3 4 5 6 7 8 9 10 11 12 13 14 15 16 17 18 19 20 21 22 23 24 25 26 27 28 29 30 31 32 33 34 35 36 37 38 39 40 41 42 43 44 45 46 47 48 49 50
000
ASUS42 KMHX 310822
RWRMHX
WEATHER ROUNDUP FOR EASTERN NORTH CAROLINA
NATIONAL WEATHER SERVICE NEWPORT/MOREHEAD CITY NC
400 AM EDT SUN AUG 31 2014

NOTE: "FAIR" INDICATES FEW OR NO CLOUDS BELOW 12,000 FEET
WITH NO SIGNIFICANT WEATHER AND/OR OBSTRUCTIONS TO VISIBILITY

NCZ015>017-031-032-045>047-102-103-310900-
NORTH COAST

CITY           SKY/WX    TMP DP  RH WIND       PRES   REMARKS
EDENTON        CLEAR     76  74  93 S6        30.16F
ELIZABETH CITY CLEAR     74  72  93 CALM      30.17F
KITTY HAWK     SUNNY     76  74  92 CALM      30.16F
MANTEO         CLEAR     78  74  89 SW5       30.18R

$$

NCZ045>047-081-094-103-104-310900-
CENTRAL COAST

CITY           SKY/WX    TMP DP  RH WIND       PRES   REMARKS
FRISCO         NOT AVBL
SWANQUARTER      N/A     79 N/A N/A SW6       30.15S

$$

NCZ095-097-098-100-101-310900-
SOUTHERN COAST

CITY           SKY/WX    TMP DP  RH WIND       PRES   REMARKS
BEAUFORT       CLEAR     78  71  79 S5        30.16F
CEDAR ISLAND     N/A     77 N/A N/A S2        30.21S
JACKSONVILLE   CLEAR     72  70  93 CALM      30.16F
NEWPORT        NOT AVBL
PINEY ISLAND   MOSUNNY   76  74  93 S5        30.16F
WILMINGTON     CLEAR     72  70  93 CALM      30.15F


$$

NCZ011>013-027>030-043-044-078>080-089-090>093-098-310900-
COASTAL PLAIN

CITY           SKY/WX    TMP DP  RH WIND       PRES   REMARKS
AHOSKIE        MOCLDY    71  70  97 CALM      30.16F
CLINTON        PTCLDY    70  70 100 CALM      30.16F
ELIZABETHTOWN  PTCLDY    72  71  98 CALM      30.15F
GOLDSBORO      PTCLDY    71  70  98 E1        30.15S
GREENVILLE     LGT RAIN  73  72  94 CALM      30.17F
HAVELOCK       CLEAR     73  70  90 CALM      30.17F
KENANSVILLE    PTCLDY    68  67  96 CALM      30.17S
KINSTON        PTCLDY    71  70  97 CALM      30.17S FOG
NEW BERN       PTCLDY    73  69  87 CALM      30.17F
RICHLANDS      PTCLDY    66  64  94 CALM      30.16S
ROANOKE RAPIDS NOT AVBL
ROCKY MOUNT    PTCLDY    72  70  93 CALM      30.16F
WASHINGTON     PTCLDY    72  71  96 CALM      30.17S
WHITEVILLE     PTCLDY    71  70  96 CALM      30.15F

$$

AMZ130-135-150-152-154-156-158-170-250-252-270-ANZ085-086-088-633-658-670-310900-
MARINE OBSERVATIONS

STATION/POSITION TIME  TEMP    WIND        PRES    WAVE   SWELL
                       AIR SEA DIR/SP/G            HT/PER HT/PER
                 (UTC) (F)     (DEG/KT/KT) (MB)    (FT/S) (FT/S)
CHESAPEAKE LIGHT 0800   77     210/ 13/ 13 1021.9
BUOY 44014       0800   77 78  180/  6/  8 1021.5    2/ 7   2/ 7
DUCK             0800   78 76  200/  5/  7 1020.9
2E DUCK          0800                        N/A     2/10
OREGON INLET     0800   79 81  170/  8/ 10 1021.6
BUOY 44095       0800      77                N/A     3/ 8
20E OREGON INLET NOT AVBL
HATTERAS CG      0800   81 83  180/  4/  8 1022.1
DIAMOND BUOY     0800   80     170/ 10/ 14 1021.8    3/ 8   3/ 8
CAPE LOOKOUT     0800   81     170/  8/  8 1021.2
BEAUFORT LAB     0800   80 82  170/  6/  8 1020.8
30 SE NEW RIVER  0800   82 83  190/ 10/ 10 1021.4    3/ 8   2/ 8
5 SE WRIGHTSVILL 0800   78 81  180/  6/  8   N/A
BUOY 41002       0652   81 83  150/  6/  8 1022.7    3/10   3/10
BUOY 41004       0800   83 83  190/ 10/ 12 1019.7    3/ 8   2/ 8

$$


USA.gov is the U.S. government's official web portal to all federal, state and local government web resources and services.